Date,TemperatureHighF,TemperatureAvgF,TemperatureLowF,DewpointHighF,DewpointAvgF,DewpointLowF,HumidityHigh,HumidityAvg,HumidityLow,PressureMaxIn,PressureMinIn,WindSpeedMaxMPH,WindSpeedAvgMPH,GustSpeedMaxMPH,PrecipitationSumIn
2013-2-1,28.8,25.8,23.8,21.0,15.4,9.0,87,65,50,30.25,30.11,35,12,53,0.00
2013-2-2,38.5,29.4,22.0,15.0,7.9,3.0,65,42,24,30.43,30.20,23,6,49,0.00
2013-2-3,42.2,31.2,20.4,5.0,-1.3,-15.0,45,27,9,30.33,29.96,22,4,33,0.00
2013-2-4,36.7,30.2,26.4,11.0,4.5,-1.0,47,34,26,30.04,29.92,23,7,40,0.00
2013-2-5,45.1,35.4,28.8,21.0,16.7,11.0,58,47,38,30.10,29.85,20,7,39,0.00
2013-2-6,38.6,32.7,23.4,24.0,18.4,15.0,86,57,40,30.04,29.78,14,4,23,0.00
2013-2-7,40.0,26.4,16.0,15.0,2.4,-9.0,72,40,12,30.20,30.03,14,4,21,0.00
2013-2-8,39.9,25.8,9.8,19.0,2.2,-5.0,66,39,16,30.14,29.82,10,2,14,0.00
2013-2-9,28.7,22.2,16.2,23.0,14.6,8.0,88,73,45,29.81,29.54,12,2,17,0.00
2013-2-10,20.5,15.4,8.0,14.0,8.1,3.0,87,74,50,30.19,29.60,9,3,18,0.00
2013-2-11,19.7,9.0,-3.8,12.0,4.0,-8.0,88,80,63,30.36,30.20,6,1,12,0.00
2013-2-12,25.9,16.3,8.6,5.0,-1.0,-9.0,62,48,30,30.37,30.29,18,8,28,0.00
2013-2-13,27.1,22.0,16.3,15.0,9.7,5.0,64,59,53,30.33,30.14,34,10,42,0.00
2013-2-14,27.2,18.8,11.3,16.0,11.2,8.0,91,73,52,30.36,30.09,31,5,34,0.00
2013-2-15,23.4,18.7,14.4,14.0,10.4,7.0,86,70,55,30.53,30.35,20,6,33,0.00
2013-2-16,36.6,28.7,21.9,13.0,9.8,5.0,63,46,33,30.48,30.12,38,11,48,0.00
2013-2-17,43.6,32.4,18.3,16.0,1.6,-9.0,77,31,13,30.11,29.59,25,8,40,0.00
2013-2-18,24.0,17.9,13.5,10.0,2.8,-10.0,75,53,25,30.24,29.68,15,6,29,0.00
2013-2-19,39.0,24.8,13.4,7.0,-4.5,-23.0,65,32,8,30.23,29.85,11,2,23,0.00
2013-2-20,32.8,20.5,13.0,16.0,9.2,4.0,89,64,31,29.84,29.67,9,1,13,0.00
2013-2-21,21.9,14.8,7.8,16.0,10.9,5.0,89,84,71,30.05,29.73,8,1,11,0.00
2013-2-22,26.0,17.5,12.9,14.0,5.1,0.0,79,59,43,30.12,30.00,24,5,42,0.00
2013-2-23,35.4,23.1,13.9,18.0,9.2,0.0,88,57,42,30.01,29.76,28,7,45,0.00
2013-2-24,17.9,14.4,1.4,15.0,11.6,-2.0,89,88,86,30.28,29.77,8,1,14,0.00
2013-2-25,30.4,19.3,0.7,9.0,5.4,-3.0,88,58,34,30.33,30.01,17,4,22,0.00
2013-2-26,24.4,19.0,10.7,16.0,10.9,7.0,88,72,47,30.26,29.88,16,2,20,0.00
2013-2-27,23.0,15.7,6.5,7.0,1.1,-8.0,78,54,35,30.49,30.27,23,5,26,0.00
2013-2-28,25.0,18.6,11.8,13.0,5.2,-1.0,73,57,42,30.52,30.41,19,6,38,0.00